Tracking 17925 objects as of 21-January-2017
HD Live streaming from Space Station
objects crossing your sky now

INTELSAT 705

Track INTELSAT 705 now!
INTELSAT 705 is classified as:


NORAD ID: 23528
Int'l Code: 1995-013A
Perigee: 36,107.3 km
Apogee: 36,214.7 km
Inclination: 5.7 °
Period: 1,454.9 minutes
Semi major axis: 42532 km
RCS: 12.1482 m2 (large)
Launch date: March 22, 1995
Source: International Telecommunications Satellite Organization (ITSO)
Launch site: AIR FORCE EASTERN TEST RANGE (AFETR)

42 C-band, 24 Ku-band; broadcasting, business services, direct-to-home TV broadcasting, telecommunications, VSATnetworks; Atlantic Ocean region.
Your satellite tracking list
Your tracking list is empty





NASA's NSSDC Master Catalog

Two Line Element Set (TLE):
1 23528U 95013A   17021.50499487 -.00000145  00000-0  00000+0 0  9995
2 23528   5.6537  58.7008 0012628  11.7869  57.0751  0.98975772 79620
Source of the keplerian elements: AFSPC